(80577) = 2000 AQ120 = 2001 KK72

Discovered at Socorro on 2000-01-05 by LINEAR.

Orbit

Orbit type: Main Belt

Note: WebGL enabled browser required.

epoch2024-03-31.0
epoch JD2460400.5
perihelion date2020-10-05.95295
perihelion JD2459128.45295
argument of perihelion (°)158.02539
ascending node (°)249.90817
inclination (°)5.91852
eccentricity0.1220874
perihelion distance (AU)2.0445443
Tisserand w.r.t. Jupiter3.6
ΔV w.r.t. Earth (km/sec)9.1
semimajor axis (AU)2.3288701
mean anomaly (°)352.76795
mean daily motion (°/day)0.27732300
aphelion distance (AU)2.613
period (years)3.55
P-vector [x]0.66811871
P-vector [y]0.66639016
P-vector [z]0.33097060
Q-vector [x]-0.73772599
Q-vector [y]0.65118414
Q-vector [z]0.17809990
absolute magnitude15.79
phase slope0.15
uncertainty0
referenceMPEC 2024-D122
observations used1174
oppositions17
arc length (days)8798
first opposition used1999
last opposition used2024
residual rms (arc-secs)0.69
perturbers coarse indicatorM-v
perturbers precise indicator003Ek
first observation date used1999-12-12.0
last observation date used2024-01-13.0
computer nameMPCLINUX
JD of orbit computation2456760.616768
perihelion JD uncertainty (days)9.5237E-05
argument of perihelion uncertainty (°)6.2812E-05
ascending node uncertainty (°)5.6884E-05
inclination uncertainty (°)5.2610E-06
eccentricity uncertainty 5.0954E-08
perihelion distance uncertainty (AU)1.1826E-07
Minimum Orbit Intersection Distances (in AU)
for orbit epoch: 2460400.5, reference: E2024-DC2
Mercury1.72742
Venus1.32419
Earth1.05641
Mars0.53623
Jupiter2.725
Saturn6.89638
Uranus15.9752
Neptune27.7732

Observations

1195 total observations over interval: 1999 12 12.51785 – 2024 01 13.086085
These data are available for download (format description).

Date (UT) J2000 RA J2000 Dec Magn Location Ref
1999 12 12.51785 08 50 16.51 +11 34 10.9 19.5 V 691 – Steward Observatory, Kitt Peak-Spacewatch MPS 16764
1999 12 12.52583 08 50 16.44 +11 34 08.8 19.5 V 691 – Steward Observatory, Kitt Peak-Spacewatch MPS 16764
1999 12 12.53446 08 50 16.37 +11 34 06.6 19.4 V 691 – Steward Observatory, Kitt Peak-Spacewatch MPS 16764
2000 01 04.27106 08 39 06.32 +10 36 32.4 18.6 R 699 – Lowell Observatory-LONEOS MPS 9357
2000 01 04.29652 08 39 04.88 +10 36 31.6   699 – Lowell Observatory-LONEOS MPS 9357
2000 01 04.32197 08 39 03.59 +10 36 30.1   699 – Lowell Observatory-LONEOS MPS 9357
2000 01 05.30454 08 38 13.28 +10 35 51.2 18.9   704 – Lincoln Laboratory ETS, New Mexico MPS 9357
2000 01 05.33377 08 38 11.74 +10 35 50.4 18.8   704 – Lincoln Laboratory ETS, New Mexico MPS 9357
2000 01 05.34835 08 38 10.92 +10 35 51.1 19.5   704 – Lincoln Laboratory ETS, New Mexico MPS 9357
2000 01 05.36295 08 38 10.13 +10 35 49.7 19.2   704 – Lincoln Laboratory ETS, New Mexico MPS 9357
2000 01 07.36911 08 36 22.96 +10 34 56.7 18.7   704 – Lincoln Laboratory ETS, New Mexico MPS 9357
2000 01 07.38425 08 36 22.08 +10 34 56.4 19.2   704 – Lincoln Laboratory ETS, New Mexico MPS 9357
2000 01 07.40080 08 36 21.19 +10 34 56.7 19.0   704 – Lincoln Laboratory ETS, New Mexico MPS 9357
2000 01 07.41559 08 36 20.30 +10 34 56.5 19.4   704 – Lincoln Laboratory ETS, New Mexico MPS 9357
2000 01 07.43037 08 36 19.48 +10 34 55.8 19.8   704 – Lincoln Laboratory ETS, New Mexico MPS 9357
2000 02 02.25286 08 09 29.12 +11 10 16.8 18.1   704 – Lincoln Laboratory ETS, New Mexico MPS 10181
2000 02 02.26727 08 09 28.22 +11 10 18.2 18.6   704 – Lincoln Laboratory ETS, New Mexico MPS 10181
2000 02 02.28177 08 09 27.35 +11 10 20.4 18.4   704 – Lincoln Laboratory ETS, New Mexico MPS 10181
2000 02 02.29610 08 09 26.41 +11 10 22.5 18.5   704 – Lincoln Laboratory ETS, New Mexico MPS 10181
2000 02 02.31085 08 09 25.49 +11 10 24.9 18.8   704 – Lincoln Laboratory ETS, New Mexico MPS 10181
2000 02 04.23338 08 07 32.32 +11 15 27.4 19.0   704 – Lincoln Laboratory ETS, New Mexico MPS 10181
2000 02 04.24753 08 07 31.46 +11 15 28.4 19.5   704 – Lincoln Laboratory ETS, New Mexico MPS 10181
2000 02 04.27586 08 07 29.81 +11 15 33.0 19.6   704 – Lincoln Laboratory ETS, New Mexico MPS 10181
2000 02 27.11379 07 52 15.75 +12 19 16.0 19.6 R 703 – Catalina Sky Survey MPS 10934
2000 02 27.12999 07 52 15.44 +12 19 18.3 19.1 R 703 – Catalina Sky Survey MPS 10934
2000 02 27.14611 07 52 15.23 +12 19 21.5 18.6 R 703 – Catalina Sky Survey MPS 10934
2000 02 27.16230 07 52 14.85 +12 19 21.8 19.0 R 703 – Catalina Sky Survey MPS 10934
2001 05 23.18666 15 56 11.46 -21 51 30.7 17.7 R 807 – Cerro Tololo Observatory, La Serena MPS 31812
2001 05 23.25068 15 56 07.30 -21 51 09.4   807 – Cerro Tololo Observatory, La Serena MPS 31812
2001 05 24.28206 15 55 03.30 -21 45 48.4 18.6   704 – Lincoln Laboratory ETS, New Mexico MPS 31812
2001 05 24.29393 15 55 02.62 -21 45 45.2 19.5   704 – Lincoln Laboratory ETS, New Mexico MPS 31812
2001 05 24.30579 15 55 01.77 -21 45 41.5 19.4   704 – Lincoln Laboratory ETS, New Mexico MPS 31812
2001 05 24.31767 15 55 01.04 -21 45 37.0 19.2   704 – Lincoln Laboratory ETS, New Mexico MPS 31812
2001 05 24.32953 15 55 00.29 -21 45 33.0 19.3   704 – Lincoln Laboratory ETS, New Mexico MPS 31812
2001 05 29.38903 15 49 50.08 -21 18 21.0 20.8   608 – Haleakala-AMOS MPS 31812
2001 05 29.39764 15 49 49.57 -21 18 18.3 20.4   608 – Haleakala-AMOS MPS 31812
2001 05 29.40917 15 49 48.75 -21 18 14.1 20.4   608 – Haleakala-AMOS MPS 31812
2002 08 04.37417 01 16 57.10 +16 20 47.0 18.9   704 – Lincoln Laboratory ETS, New Mexico MPS 67575
2002 08 04.38903 01 16 57.77 +16 20 51.3 19.0   704 – Lincoln Laboratory ETS, New Mexico MPS 67575
2002 08 04.40392 01 16 58.54 +16 20 58.3 19.2   704 – Lincoln Laboratory ETS, New Mexico MPS 67575
2002 08 04.41877 01 16 59.23 +16 21 04.4 19.3   704 – Lincoln Laboratory ETS, New Mexico MPS 67575
2002 09 28.56513 01 18 14.44 +18 01 21.2 19.2   608 – Haleakala-AMOS MPS 67575
2002 09 28.57615 01 18 13.93 +18 01 18.2 19.5   608 – Haleakala-AMOS MPS 67575
2002 09 28.58711 01 18 13.41 +18 01 15.1 19.1   608 – Haleakala-AMOS MPS 67575
2002 10 02.83598 01 14 52.99 +17 38 09.4 17.6 R 599 – Campo Imperatore-CINEOS MPS 62815
2002 10 02.84679 01 14 52.45 +17 38 05.4 17.8 R 599 – Campo Imperatore-CINEOS MPS 62815
2002 10 02.85742 01 14 51.91 +17 38 01.9 17.9 R 599 – Campo Imperatore-CINEOS MPS 62815
2002 10 02.86800 01 14 51.38 +17 37 58.4 18.0 R 599 – Campo Imperatore-CINEOS MPS 62815
2002 10 03.38291 01 14 25.39 +17 34 53.3 17.6   644 – Palomar Mountain/NEAT MPS 62815
2002 10 03.40375 01 14 24.30 +17 34 45.6 17.6   644 – Palomar Mountain/NEAT MPS 62815
2002 10 03.42826 01 14 23.01 +17 34 36.5 17.7   644 – Palomar Mountain/NEAT MPS 62815
2002 10 04.37001 01 13 35.82 +17 28 45.0 17.7 R 699 – Lowell Observatory-LONEOS MPS 62815
2002 10 04.38756 01 13 34.86 +17 28 38.4   699 – Lowell Observatory-LONEOS MPS 62815
2002 10 04.40511 01 13 33.94 +17 28 31.3   699 – Lowell Observatory-LONEOS MPS 62815
2002 10 04.42269 01 13 33.03 +17 28 25.3   699 – Lowell Observatory-LONEOS MPS 62815
2002 10 05.25933 01 12 50.79 +17 23 02.0 17.9   704 – Lincoln Laboratory ETS, New Mexico MPS 62815
2002 10 05.27499 01 12 49.96 +17 22 55.8 18.1   704 – Lincoln Laboratory ETS, New Mexico MPS 62815
2002 10 05.29048 01 12 49.11 +17 22 49.5 18.0   704 – Lincoln Laboratory ETS, New Mexico MPS 62815
2002 10 05.30610 01 12 48.25 +17 22 43.3 17.8   704 – Lincoln Laboratory ETS, New Mexico MPS 62815
2002 10 05.32155 01 12 47.40 +17 22 37.6 18.1   704 – Lincoln Laboratory ETS, New Mexico MPS 62815
2002 10 07.24726 01 11 07.86 +17 09 36.5 17.6   704 – Lincoln Laboratory ETS, New Mexico MPS 62815
2002 10 07.26302 01 11 06.97 +17 09 29.9 18.1   704 – Lincoln Laboratory ETS, New Mexico MPS 62815
2002 10 07.27875 01 11 06.09 +17 09 23.7 18.1   704 – Lincoln Laboratory ETS, New Mexico MPS 62815
2002 10 07.29438 01 11 05.18 +17 09 16.2 18.0   704 – Lincoln Laboratory ETS, New Mexico MPS 62815
2002 10 07.31011 01 11 04.36 +17 09 10.2 17.9   704 – Lincoln Laboratory ETS, New Mexico MPS 62815
2002 10 09.24932 01 09 22.33 +16 55 14.0 17.4   704 – Lincoln Laboratory ETS, New Mexico MPS 62815
2002 10 09.26402 01 09 21.52 +16 55 07.2 17.5   704 – Lincoln Laboratory ETS, New Mexico MPS 62815
2002 10 09.27875 01 09 20.71 +16 55 01.4 17.5   704 – Lincoln Laboratory ETS, New Mexico MPS 62815
2002 10 09.29342 01 09 19.87 +16 54 54.5 17.7   704 – Lincoln Laboratory ETS, New Mexico MPS 62815
2002 10 09.30888 01 09 19.02 +16 54 47.6 17.3   704 – Lincoln Laboratory ETS, New Mexico MPS 62815
2002 10 12.25483 01 06 42.19 +16 32 14.2 18.1   704 – Lincoln Laboratory ETS, New Mexico MPS 62815
2002 10 12.27130 01 06 41.25 +16 32 06.5 18.1   704 – Lincoln Laboratory ETS, New Mexico MPS 62815
2002 10 12.28790 01 06 40.31 +16 31 58.8 18.0   704 – Lincoln Laboratory ETS, New Mexico MPS 62815
2002 10 12.30461 01 06 39.37 +16 31 51.1 18.1   704 – Lincoln Laboratory ETS, New Mexico MPS 62815
2002 10 31.20698 00 51 36.37 +13 46 47.2 17.6   644 – Palomar Mountain/NEAT MPS 65510
2002 10 31.22812 00 51 35.52 +13 46 36.0 17.4   644 – Palomar Mountain/NEAT MPS 65510
2002 10 31.24892 00 51 34.69 +13 46 25.0 17.5   644 – Palomar Mountain/NEAT MPS 65510
2002 11 03.26384 00 49 49.10 +13 20 10.9 18.8   704 – Lincoln Laboratory ETS, New Mexico MPS 65510
2002 11 03.28087 00 49 48.47 +13 20 02.1 18.7   704 – Lincoln Laboratory ETS, New Mexico MPS 65510
2002 11 03.31479 00 49 47.30 +13 19 44.9 18.9   704 – Lincoln Laboratory ETS, New Mexico MPS 65510
2002 11 08.16400 00 47 31.40 +12 39 38.7 18.4   704 – Lincoln Laboratory ETS, New Mexico MPS 65510
2002 11 08.18111 00 47 30.94 +12 39 30.5 18.7   704 – Lincoln Laboratory ETS, New Mexico MPS 65510
2002 11 08.19807 00 47 30.52 +12 39 22.2 18.6   704 – Lincoln Laboratory ETS, New Mexico MPS 65510
2002 11 08.21511 00 47 30.04 +12 39 14.2 18.8   704 – Lincoln Laboratory ETS, New Mexico MPS 65510
2002 11 08.23238 00 47 29.60 +12 39 06.1 18.7   704 – Lincoln Laboratory ETS, New Mexico MPS 65510
2002 11 12.15510 00 46 12.74 +12 09 14.0 19.1   644 – Palomar Mountain/NEAT MPS 65510
